Regional Weather Roundup
Issued by NWS

Home | Current Version | Previous Version | Text Only | Print | Product List | Glossary Off
Versions: 1 2 3 4 5 6 7 8 9 10 11 12 13 14 15 16 17 18 19 20 21 22 23 24 25 26 27 28 29 30 31 32 33 34 35 36 37 38 39 40 41 42 43 44 45 46 47 48 49 50

000
ASUS43 KLOT 212006
RWRIL

ILLINOIS REGIONAL WEATHER ROUNDUP
NATIONAL WEATHER SERVICE CHICAGO/ROMEOVILLE IL
300 PM CDT SUN SEP 21 2014

NOTE: "FAIR" INDICATES FEW OR NO CLOUDS BELOW 12,000 FEET WITH NO
SIGNIFICANT WEATHER AND/OR OBSTRUCTIONS TO VISIBILITY.

* THESE STATIONS ARE NOT UNDER NWS QUALITY CONTROL. THEY ALSO MAY NOT
  REPORT WEATHER SUCH AS PRECIPITATION OR FOG.

ILZ001-002-007-009-015-016-024-212100-
NORTHWEST ILLINOIS

CITY           SKY/WX    TMP DP  RH WIND       PRES   REMARKS
MOLINE         CLOUDY    64  50  60 N13       30.06R
STERLING*      PTSUNNY   64  52  63 N14G20    30.02S
SAVANNA*       MOSUNNY   66  52  59 NW12      30.03S
$$

ILZ003-004-008-010-011-017-018-212100-
NORTH CENTRAL ILLINOIS

CITY           SKY/WX    TMP DP  RH WIND       PRES   REMARKS
ROCKFORD       PTSUNNY   65  49  56 NW16      30.00R
ROCHELLE*      PTSUNNY   66  51  56 NW12G24   29.99S
DE KALB*       PTSUNNY   64  50  60 NW12G18   29.99R
PERU*          CLOUDY    65  51  60 NW14      30.02R
$$

ILZ005-006-012>014-019>023-212100-
NORTHEAST ILLINOIS

CITY           SKY/WX    TMP DP  RH WIND       PRES   REMARKS
CHICAGO-OHARE  PTSUNNY   67  50  54 N14G20    29.95R
CHICAGO-MIDWAY PTSUNNY   65  53  65 N10       29.95R
AURORA         CLOUDY    65  50  58 NW13G24   29.98R
LANSING*       CLOUDY    60  50  69 N15       29.96R
JOLIET*        MOSUNNY   66  48  52 N14       29.97S
WAUKEGAN       CLOUDY    63  49  60 N10G21    29.95R
DUPAGE AIRPORT PTSUNNY   67  52  58 NW16G23   29.96S
KANKAKEE*      PTSUNNY   65  51  59 NW10G17   29.97R
WHEELING       CLOUDY    70  49  47 N16       29.96R
MORRIS*        PTSUNNY   68  51  55 NW6G18    29.98R
ROMEOVILLE*    CLOUDY    65  50  58 NW9G18    29.97R
NORTHERLY ISL    N/A     62  54  74 N10         N/A
$$

LMZ740>746-212100-
SOUTHERN LAKE MICHIGAN

STATION/POSITION SKY/WX   TEMP    WIND        PRES    VSBY  WAVE
                          AIR SEA DIR/SP/G                  HT/PER
                          (F)     (DEG/KT/KT) (MB)    (MI)  (FT/S)
SOUTHERN BUOY              58 62  330/ 23/ 29 1013.2R         9/ 7
WAUKEGAN HARBOR            56      20/  8/ 14   N/A
HARRISON CRIB              60     350/ 14/ 16   N/A
BURNHAM HARBOR             61      20/ 10/ 14   N/A
CALUMET HARBOR             61     340/  8/ 13 1013.2S
MICHIGAN CITY              60     330/ 31/ 37   N/A
MICHIGAN CITY 6N           61 64  350/ 21/ 29   N/A           7/ 6
ST. JOSEPH                 60 65  340/ 25/ 33   N/A          10/ 7
$$

ILZ025>027-034>036-040-047-049-050-058-095>099-212100-
WEST-CENTRAL ILLINOIS

CITY           SKY/WX    TMP DP  RH WIND       PRES   REMARKS
QUINCY         PTSUNNY   72  47  40 NW18      30.06S
GALESBURG*     CLOUDY    64  52  64 NW14G21   30.07R
MACOMB*        MOSUNNY   68  50  52 NW15G24   30.08R
JACKSONVILLE*  MOSUNNY   75  48  39 NW17G23   30.04S
PITTSFIELD*    PTSUNNY   73  45  36 NW13G21   30.06S
$$

ILZ028>032-037-038-041>044-048-051>054-059>061-212100-
CENTRAL ILLINOIS

CITY           SKY/WX    TMP DP  RH WIND       PRES   REMARKS
PONTIAC        PTSUNNY   66  52  59 NW12G18   29.99S
DECATUR        PTSUNNY   71  51  49 NW14G24   30.00R
PEORIA         CLOUDY    68  50  52 NW8G18    30.04R
LACON*         CLOUDY    65  49  56 NW14      30.02R
LINCOLN*       CLOUDY    72  49  45 NW8G21    29.99R
SPRINGFIELD    PTSUNNY   75  50  41 NW15G24   30.02R
TAYLORVILLE    MOSUNNY   73  46  38 NW14G23   30.00S
$$

ILZ033-039-045-046-055>057-062-063-212100-
EAST-CENTRAL ILLINOIS

CITY           SKY/WX    TMP DP  RH WIND       PRES   REMARKS
CHAMPAIGN      MOSUNNY   68  51  54 NW18G26   29.99R
DANVILLE*      CLOUDY    65  50  59 NW15G21   29.95R
RANTOUL*       PTSUNNY   67  48  50 NW8G22    29.99S
MATTOON        PTSUNNY   73  49  42 NW21G29   29.96S
PARIS*         PTSUNNY   71  50  47 NW14G22   29.96R
$$

ILZ079-100>102-212100-
SOUTHWEST ILLINOIS

CITY           SKY/WX    TMP DP  RH WIND       PRES   REMARKS
BELLEVILLE     SUNNY     77  50  38 W14G21    30.00S
CAHOKIA*       SUNNY     79  47  32 NW20G26   30.01F
SPARTA*        SUNNY     78  47  32 NW13G20   30.01F
$$

ILZ064>066-069>071-074>076-080>082-084>086-088>090-092>094-212100-
SOUTH-CENTRAL ILLINOIS

CITY           SKY/WX    TMP DP  RH WIND       PRES   REMARKS
CARBONDALE     SUNNY     78  47  33 NW12G22   30.00F
CAIRO*         SUNNY     82  52  35 NW10      30.00S HX  81
EFFINGHAM*     SUNNY     76  41  27 NW18G25   29.98R
MT. VERNON     SUNNY     77  48  36 NW6       30.00S
CENTRALIA*     MOSUNNY   77  46  32 NW14G26   29.99S
SALEM*         MOSUNNY   77  52  40 NW14G21   29.99S
METROPOLIS*    SUNNY     81  51  34 NW13      29.98S HX  80
$$

ILZ067-068-072-073-078-083-087-091-212100-
SOUTHEAST ILLINOIS

CITY           SKY/WX    TMP DP  RH WIND       PRES   REMARKS
LAWRENCEVILLE  MOSUNNY   78  49  35 NW23G31   29.95S
FLORA*         SUNNY     78  45  31 NW20G30   29.97S
FAIRFIELD*     SUNNY    N/A N/A N/A W9G16     29.97S
HARRISBURG*    SUNNY     78  47  33 W14G21    29.99F
ROBINSON*      MOSUNNY   78  49  36 NW20G25   29.96R
CARMI*         SUNNY     80  51  36 W15G22    29.97S HX  80
$$

ABBREVIATIONS USED IN REMARKS
   TC - TEMPERATURE IN CELSIUS
  WCI - WIND CHILL INDEX
   HX - HEAT INDEX
  VSB - VISIBILITY
$$



USA.gov is the U.S. government's official web portal to all federal, state and local government web resources and services.